Theta_e
314 313 314 316 320 322 322 321 322 320 324 323 318 323 319 318 322 318 317 318 317 318 318 317 317 318 318 320 321 324 323 326 327 321 322 323 320 323 323 327 332 334 338 337 337 338 338 338 338 337 337 336 336 334 333 332 332 332 332 332 330 329 325 318 318 319 320 322 322 323 324 325 326 326 326 324 324 328 330 330 330 328 326 319 313 311 308 307 307 308 309 310 310 310 309 308 313
313 313 314 317 322 324 322 321 327 327 327 321 316 322 319 319 320 318 320 318 318 319 320 319 318 320 320 320 321 324 326 327 327 325 325 321 320 321 321 326 330 333 337 337 337 338 339 339 338 338 337 336 336 335 334 334 334 333 333 332 330 328 323 319 319 319 320 321 321 323 323 324 324 323 325 325 323 326 328 328 327 326 323 317 313 311 307 307 307 308 308 309 308 307 308 308 310
313 314 315 320 323 322 325 323 326 329 328 321 318 322 319 318 319 321 320 316 319 319 319 319 319 320 320 322 323 323 327 327 327 326 323 320 319 321 322 325 327 332 337 338 337 338 339 338 338 337 337 336 336 336 335 335 334 334 333 332 331 328 325 321 319 319 320 321 322 323 324 323 322 323 325 326 325 326 327 326 324 321 318 315 314 312 307 307 307 307 308 307 307 307 308 308 309
313 317 318 322 323 322 335 333 329 331 325 322 321 322 323 322 321 320 316 316 319 318 317 318 320 320 320 324 323 323 327 326 326 326 321 319 320 321 324 323 325 333 337 338 338 337 338 338 338 338 337 337 336 336 334 334 335 334 334 332 331 329 327 325 322 320 319 321 322 323 324 323 323 325 326 326 327 326 323 321 320 319 317 316 316 312 308 307 306 307 306 306 306 307 308 308 309
317 321 321 322 324 323 332 328 330 334 323 323 322 322 329 327 322 316 314 316 317 317 317 318 322 321 321 323 322 322 325 325 324 325 323 321 319 321 324 323 325 332 336 338 337 337 338 338 337 338 337 337 336 336 335 334 334 334 334 333 331 329 328 327 325 323 320 320 322 324 324 323 324 327 327 327 327 325 321 321 322 322 320 318 317 314 310 307 306 306 306 306 305 306 306 307 307
320 322 320 321 322 318 324 321 323 328 322 325 323 322 327 321 317 315 313 315 316 317 317 317 320 320 322 323 324 324 324 323 322 323 322 321 321 322 325 325 327 330 334 336 337 337 337 338 337 338 337 336 336 335 335 334 334 334 334 333 332 331 328 327 327 326 323 321 322 324 324 323 325 327 328 329 328 327 325 325 326 325 323 321 319 316 312 309 306 306 306 305 305 305 305 305 305
321 322 321 322 322 317 325 325 321 324 318 318 323 323 320 315 314 314 313 316 316 316 317 318 318 319 322 322 323 324 323 321 319 320 321 322 322 324 327 329 330 330 333 335 336 336 336 337 337 338 337 336 336 335 335 335 335 334 333 333 331 330 328 327 327 326 325 323 322 323 324 324 324 326 328 329 329 329 328 328 327 326 324 322 321 318 314 311 307 305 306 305 305 305 304 305 305
321 321 320 327 328 324 330 324 320 324 317 312 317 320 316 314 314 313 313 314 315 316 318 318 317 319 320 319 321 322 321 321 319 319 320 323 324 324 327 329 331 330 332 335 335 335 335 335 336 337 337 336 337 336 335 335 335 334 334 333 332 331 329 327 325 324 324 323 323 323 324 324 324 326 328 329 329 329 329 328 328 326 324 322 321 319 316 313 309 305 305 305 304 305 305 305 306
321 321 320 327 328 329 331 320 317 320 317 314 314 316 315 314 313 313 314 313 314 316 317 317 316 318 319 318 321 321 321 321 319 319 320 323 325 325 326 327 330 331 332 335 335 334 334 334 334 336 337 337 336 336 335 335 335 335 335 334 333 332 329 328 325 323 323 324 324 323 325 325 325 327 329 329 329 329 329 328 327 326 324 322 321 320 317 314 311 306 305 304 304 304 304 305 306
321 322 318 325 328 324 324 319 321 320 317 316 313 315 315 313 313 313 314 314 315 316 316 316 315 317 319 319 320 320 320 319 319 320 321 323 326 328 328 327 329 332 332 334 335 334 335 334 334 334 336 337 337 336 335 335 336 335 336 334 334 332 329 327 325 323 324 325 324 324 325 326 326 327 327 328 328 329 328 327 327 325 323 322 321 321 317 314 312 308 305 305 304 304 304 305 306
321 319 319 333 332 322 322 319 322 321 317 316 313 315 315 314 314 312 314 314 315 316 315 316 317 318 318 318 319 319 319 318 319 321 321 323 325 328 329 329 329 332 333 333 334 335 335 334 333 334 334 336 337 336 335 335 336 336 335 334 334 332 328 325 325 324 324 326 324 324 325 324 325 327 326 326 327 328 327 326 326 325 322 321 321 320 317 314 312 310 307 305 305 304 304 304 305
319 320 332 341 331 326 327 321 319 320 318 317 316 315 315 314 314 314 314 315 315 315 315 316 318 318 316 316 317 318 318 317 319 320 321 322 325 327 328 331 331 331 333 331 331 333 334 333 332 333 334 335 336 335 336 335 336 336 335 334 334 332 329 326 325 324 325 325 325 324 324 324 325 326 325 323 324 326 325 325 325 323 321 320 320 319 317 315 313 310 308 307 305 305 304 304 304
318 323 342 332 321 328 326 320 321 321 318 317 316 314 315 314 315 315 314 315 314 315 315 315 316 317 316 315 315 317 317 318 318 319 320 320 324 327 327 330 330 330 334 332 334 334 332 332 331 333 333 332 335 335 336 336 335 335 335 335 334 333 330 328 326 326 326 325 324 323 322 323 324 324 323 322 323 324 324 325 324 322 320 320 319 318 318 316 314 313 312 310 308 306 305 304 303
317 321 340 327 315 323 320 319 320 318 320 319 316 314 316 315 315 315 315 316 314 315 316 315 316 316 316 314 314 315 316 317 318 318 319 318 321 325 326 328 329 329 332 332 335 334 330 330 329 332 335 332 333 335 334 335 335 335 335 336 334 333 332 331 328 328 328 326 323 322 321 322 322 322 322 322 323 324 325 324 322 321 321 320 320 320 320 318 317 318 317 315 313 310 308 306 304
317 316 331 328 317 320 319 321 321 319 321 320 316 314 316 315 315 315 315 317 315 314 315 315 316 316 316 316 316 315 314 316 317 318 318 318 317 320 324 326 328 327 329 328 328 330 327 328 329 331 337 334 332 335 334 334 335 335 335 336 335 333 333 332 330 328 328 326 323 322 321 321 322 322 323 323 323 324 324 323 323 322 321 321 321 321 321 320 320 320 320 319 317 315 312 310 308
317 316 329 329 318 319 319 319 320 321 320 316 315 315 315 315 315 315 315 315 315 314 315 315 316 316 316 316 316 315 314 314 315 317 316 316 317 318 320 322 325 324 325 325 324 327 321 326 332 330 332 332 332 335 335 334 334 334 335 335 335 334 333 333 330 328 326 325 324 323 322 321 322 322 323 323 322 323 324 324 323 322 321 322 321 322 322 322 322 322 322 322 321 319 316 314 313
315 321 335 329 319 320 319 319 320 322 323 315 313 315 316 315 315 315 315 315 315 314 314 315 315 315 315 316 316 314 314 314 313 315 315 315 316 316 318 318 319 318 320 320 320 323 319 322 329 325 326 331 334 335 333 334 334 333 335 335 335 334 334 333 331 329 327 326 325 324 323 322 322 322 323 323 323 325 326 325 323 322 322 322 322 322 323 322 323 323 323 323 322 321 318 318 317
320 332 335 323 319 320 320 322 317 318 323 315 313 315 315 317 315 314 315 315 314 314 313 314 315 315 315 316 315 314 314 314 313 313 313 314 314 315 316 316 316 315 315 315 315 318 318 320 322 321 326 331 333 331 329 332 333 333 334 334 334 334 334 333 332 331 329 328 326 326 325 323 323 323 323 324 326 327 327 325 323 323 323 323 323 322 323 323 323 323 323 323 323 322 321 321 321
321 334 334 325 326 320 316 318 313 314 318 314 314 315 315 317 315 315 316 314 313 314 314 313 314 314 315 316 315 314 313 313 313 313 313 313 314 313 314 315 315 314 314 314 314 314 316 317 318 318 323 326 326 326 327 331 332 332 333 333 333 334 334 333 333 333 331 329 328 327 326 325 324 324 323 324 327 327 326 325 324 324 324 324 323 322 323 324 324 324 323 322 321 322 323 322 322
316 327 333 327 323 317 313 314 313 315 315 313 314 314 315 316 315 315 315 314 313 314 315 313 313 315 315 315 316 315 314 314 313 313 314 313 314 313 314 314 314 315 314 314 314 314 315 315 316 316 318 320 321 324 329 331 332 332 332 332 333 333 334 333 333 332 332 331 330 330 327 325 325 325 324 325 327 328 326 326 326 326 326 326 325 324 325 326 325 325 324 322 321 321 323 323 323
314 322 329 321 314 315 315 314 315 315 314 314 314 314 314 315 316 315 314 316 315 314 315 315 315 316 315 315 315 316 314 314 314 313 314 313 314 314 314 314 314 315 314 315 315 314 315 314 315 315 315 316 317 322 326 328 330 332 333 333 333 333 333 333 333 332 331 331 331 331 329 327 326 326 327 328 329 329 328 327 327 327 327 327 326 326 327 327 326 325 325 323 322 321 322 323 323
315 316 317 315 312 316 316 314 315 315 314 315 314 315 316 315 315 314 315 319 319 315 316 317 316 316 316 315 315 315 315 314 314 313 313 313 313 314 314 314 314 315 314 315 315 315 315 315 314 314 315 315 316 318 321 323 327 331 332 332 332 332 333 332 333 332 331 331 331 331 331 330 328 327 328 331 330 330 330 328 328 328 328 328 327 327 328 328 326 325 325 324 323 322 322 323 324
320 316 312 313 314 316 316 315 316 315 315 315 314 316 316 315 315 315 314 317 318 316 316 316 316 316 315 315 314 314 314 314 314 313 313 313 313 313 314 314 314 314 314 314 314 314 314 314 315 314 315 315 316 317 317 319 325 329 329 328 330 331 332 332 332 331 331 332 331 331 331 331 331 328 329 332 331 331 330 329 329 328 328 328 327 327 328 328 326 325 325 324 323 322 322 323 324
322 319 313 315 315 315 316 315 316 316 316 316 315 316 315 315 316 314 314 316 316 316 316 316 316 316 315 314 314 314 313 313 313 313 313 313 314 314 314 313 314 313 313 313 313 313 313 313 314 314 315 315 317 317 316 316 323 329 326 323 326 328 330 332 331 331 332 332 330 330 330 331 332 330 330 331 331 331 330 330 330 328 329 328 328 328 328 328 325 324 324 324 323 322 322 323 323
320 319 314 315 315 316 317 316 316 316 316 316 315 315 315 315 315 313 314 316 316 316 316 316 316 315 315 314 314 314 313 313 313 313 313 313 314 314 314 313 313 313 313 313 313 313 313 313 313 313 314 315 316 317 318 317 319 326 325 323 325 325 327 328 328 330 330 331 330 331 330 331 333 331 331 331 331 331 330 330 330 329 329 328 328 328 329 328 325 324 323 323 323 323 321 321 321
316 317 315 315 315 316 316 316 316 315 315 315 315 315 314 314 314 314 315 315 315 316 315 316 316 315 316 315 314 313 313 313 313 313 313 313 313 313 313 313 313 313 313 313 313 314 313 313 313 312 313 314 317 317 318 318 319 324 324 327 330 327 328 328 327 329 328 329 330 331 331 332 333 332 332 332 331 331 330 330 329 329 328 327 328 328 328 327 325 323 323 323 323 322 321 320 320
316 315 315 315 315 315 315 316 316 315 314 315 315 315 315 313 314 316 316 315 315 315 315 315 316 315 315 315 314 313 312 313 312 313 313 313 313 313 313 313 313 313 313 313 313 314 314 314 313 312 312 313 316 318 319 319 322 325 325 330 335 330 332 335 331 331 329 328 329 329 331 331 332 331 331 331 330 330 329 329 328 328 328 328 329 328 327 326 324 324 324 323 322 321 320 320 320
315 315 316 315 314 315 315 314 314 315 314 314 315 314 313 313 314 316 315 315 315 314 315 315 315 315 315 315 314 314 313 313 312 312 312 313 313 313 313 312 313 313 313 313 313 314 313 313 313 312 313 312 315 320 322 321 321 326 327 329 332 329 331 333 329 330 330 330 330 329 329 329 331 330 329 329 330 330 329 329 328 327 327 328 328 327 326 326 325 324 324 323 322 321 320 321 320
315 315 318 320 319 319 315 313 313 314 315 314 314 315 316 315 314 316 315 315 315 314 314 314 314 315 315 315 314 314 313 312 313 313 312 312 312 312 312 312 313 313 313 313 313 314 313 313 313 313 313 312 315 318 321 324 322 325 327 326 329 329 328 329 328 326 327 331 331 329 327 327 329 328 328 328 329 330 329 327 327 325 325 326 327 326 326 326 325 324 324 323 322 320 321 321 321
317 314 316 323 325 323 314 311 313 313 315 314 314 319 326 324 315 314 315 314 314 313 313 314 314 314 314 314 314 314 313 313 313 313 312 312 311 312 312 312 313 313 313 313 314 314 313 313 312 313 313 312 315 317 322 327 325 325 325 324 326 326 327 330 328 325 324 326 328 328 327 326 327 327 327 328 329 328 327 325 325 325 324 325 326 325 325 325 324 324 323 323 321 320 321 321 320
320 313 319 325 320 327 321 310 313 315 314 313 314 319 325 326 316 313 314 314 314 314 313 313 313 314 314 314 313 313 314 313 313 313 312 311 311 312 312 313 313 313 313 313 313 314 313 313 313 313 313 313 317 320 323 325 324 327 328 324 326 327 327 327 326 325 323 324 327 328 328 327 327 327 327 328 327 326 325 324 324 325 324 325 325 325 325 324 323 323 322 322 322 321 321 320 319
327 315 325 328 317 331 330 310 311 317 314 311 315 320 321 321 315 312 313 312 313 313 314 314 313 313 313 313 313 313 313 313 313 312 311 311 311 311 312 312 313 313 313 313 313 313 312 313 312 313 314 314 319 324 325 323 323 326 328 327 330 330 328 326 326 325 324 326 327 327 327 327 327 328 327 327 325 324 323 321 321 323 325 325 325 324 324 323 322 322 322 322 322 321 320 319 318
333 320 324 330 320 327 327 313 310 313 313 312 314 320 322 320 313 311 312 311 312 312 312 313 313 313 313 313 313 313 313 312 312 312 311 311 311 311 312 312 312 312 312 313 312 312 312 313 313 313 315 316 320 326 325 324 325 322 323 326 328 326 326 326 325 323 324 327 327 327 327 326 326 326 325 325 323 322 322 321 322 324 325 325 324 323 322 322 322 322 321 321 320 318 316 315 314
331 321 320 328 324 322 324 323 314 309 313 315 313 316 319 318 312 311 312 311 311 311 312 313 313 313 313 313 313 312 312 312 313 313 311 311 311 311 312 312 312 312 312 312 312 312 312 312 314 313 316 319 321 324 324 325 326 323 324 327 325 324 324 325 323 322 325 327 326 326 325 324 324 323 323 322 322 323 322 323 325 324 324 323 322 322 322 321 321 320 319 318 314 310 309 307 307
331 325 324 326 323 320 323 326 317 311 314 316 315 315 316 316 312 311 312 311 311 311 313 313 312 312 313 312 312 313 312 313 314 313 311 311 311 311 312 312 312 312 312 312 312 312 312 313 315 314 315 319 320 320 322 325 325 323 326 327 325 324 324 322 321 323 325 325 324 323 322 321 321 321 322 321 322 323 323 323 323 323 322 322 321 321 321 320 319 317 314 311 306 303 303 303 304
331 333 333 329 325 323 324 326 318 312 315 317 316 316 316 316 315 312 311 311 310 312 312 311 311 312 312 312 312 312 313 314 314 312 311 310 310 311 311 311 311 312 312 312 312 312 312 312 316 316 316 318 318 319 320 321 324 324 325 325 324 324 323 322 321 323 324 322 321 321 320 320 320 320 321 321 322 322 322 322 322 322 321 320 320 320 319 317 313 309 306 303 302 301 301 302 303
325 328 330 327 326 325 325 325 317 310 314 321 318 316 316 315 316 313 310 310 309 309 309 309 311 312 312 312 312 313 313 314 314 312 311 310 310 310 311 311 311 312 311 312 312 311 311 312 313 316 318 320 320 321 321 321 325 326 325 324 323 323 322 321 321 322 322 321 320 320 320 320 320 321 321 321 322 322 322 321 320 320 319 319 318 317 314 309 304 302 301 300 300 300 300 301 303
320 322 323 323 324 324 322 321 317 311 314 322 319 316 316 314 314 312 309 309 309 309 309 309 311 312 312 312 312 313 313 313 312 312 311 310 310 310 310 311 311 311 311 311 311 311 311 311 312 313 317 322 323 323 323 323 324 324 322 321 320 320 320 320 319 319 320 320 320 320 320 320 320 321 322 321 321 321 320 319 318 317 316 315 314 311 306 302 301 300 299 298 299 299 300 301 302
318 320 319 322 323 321 321 319 316 312 314 323 322 317 317 315 314 312 309 309 311 311 312 312 313 312 312 313 313 313 312 312 312 312 312 310 310 309 310 311 311 311 311 311 311 311 312 312 313 312 314 320 324 324 324 324 322 322 321 320 320 319 318 319 319 318 320 320 319 320 320 320 321 321 321 320 319 318 317 315 314 312 310 308 306 303 301 300 299 298 297 297 298 298 299 299 300
319 319 318 322 322 320 324 322 316 314 315 319 320 317 316 315 314 314 311 310 311 313 313 313 313 313 313 314 314 313 312 313 312 312 312 311 310 309 310 310 311 311 310 311 311 311 313 314 313 314 315 317 320 321 321 321 320 321 322 322 321 319 318 319 320 320 320 319 319 320 320 320 320 320 318 317 315 313 312 310 308 305 303 302 301 300 299 298 298 297 297 297 297 297 297 297 297
322 320 319 321 322 321 323 322 319 320 320 317 317 320 321 320 318 318 315 312 311 312 312 313 313 314 314 313 313 313 313 313 313 313 312 312 311 310 310 310 311 311 310 311 310 311 315 315 314 314 317 317 316 318 319 319 320 322 322 321 320 318 318 319 320 319 318 319 320 319 319 319 318 316 313 311 309 307 306 304 302 301 300 299 298 298 298 297 297 297 297 297 296 296 296 296 295
324 323 321 319 321 321 321 321 320 324 327 320 317 324 331 331 326 324 321 319 318 314 310 311 314 315 313 313 313 313 313 312 312 312 312 313 312 310 310 310 310 311 311 311 311 310 313 315 313 313 317 318 317 319 320 321 322 322 321 319 317 317 318 319 319 319 318 318 319 319 318 316 313 310 306 304 304 302 301 300 299 299 299 298 297 297 297 297 297 297 297 296 296 295 295 295 295
323 325 322 318 318 319 320 321 320 325 328 319 316 322 329 327 324 328 329 327 327 320 312 311 314 315 314 314 316 315 313 313 312 311 311 312 311 310 310 310 310 311 311 311 311 310 310 312 312 313 318 319 318 319 321 321 321 320 320 318 316 316 317 318 318 318 317 317 318 317 314 310 306 304 302 301 300 299 299 299 298 298 298 298 297 297 297 297 297 297 297 296 296 296 295 294 295
326 323 320 320 318 319 322 321 322 325 324 321 319 320 323 322 321 326 326 324 325 322 318 315 313 314 316 317 317 317 315 314 313 312 312 311 311 311 311 311 311 310 311 311 311 311 310 311 312 314 319 320 319 319 320 320 319 319 319 317 316 317 317 317 317 317 317 317 316 312 308 304 302 300 300 299 298 298 298 298 298 298 297 297 297 297 297 297 297 297 296 296 296 295 295 294 294
326 318 317 320 320 322 324 323 323 321 320 325 326 319 320 325 325 325 322 321 323 323 321 319 315 315 316 317 318 318 316 315 313 313 312 312 312 311 311 311 310 310 311 311 311 311 311 312 313 314 317 319 317 316 318 319 318 317 316 316 317 317 317 317 316 317 317 315 311 306 303 301 300 299 298 298 298 297 298 298 298 297 297 297 297 297 297 297 296 296 296 296 295 295 295 294 294
317 313 317 320 321 324 325 326 326 323 321 325 325 321 321 325 326 326 322 322 325 322 321 319 314 315 316 317 318 317 316 314 312 312 312 312 312 311 310 310 310 310 311 311 311 311 311 313 314 314 316 316 315 315 317 317 316 315 315 316 317 316 316 317 316 316 314 310 305 302 301 300 299 298 298 297 297 297 297 297 297 297 297 297 297 296 296 296 296 295 295 295 295 294 294 294 294
312 318 326 326 326 327 327 326 324 324 325 324 323 322 322 324 326 328 323 324 328 323 322 323 317 315 317 318 318 317 316 315 313 311 310 310 310 309 309 309 309 310 311 311 310 311 312 313 314 314 315 316 314 315 316 316 314 315 315 317 316 315 316 316 316 315 311 305 302 301 300 299 298 298 298 297 297 297 297 297 296 296 296 296 296 296 296 295 295 295 294 294 294 294 293 293 293
315 329 331 326 328 327 325 326 324 324 327 324 322 319 320 323 326 327 323 324 327 323 323 328 322 317 318 318 317 317 316 315 313 311 310 309 309 309 309 309 309 309 310 311 310 311 312 314 314 313 315 316 315 313 314 314 314 315 316 315 314 314 315 316 316 313 307 303 301 300 299 299 298 298 297 297 298 297 297 297 296 296 296 296 296 296 295 295 295 294 294 294 294 293 293 292 292
319 329 326 324 327 325 325 327 324 324 323 319 317 318 319 321 321 322 322 323 323 318 316 319 317 315 317 317 316 316 315 314 313 312 311 310 310 309 309 309 309 309 310 310 310 311 312 314 314 314 315 316 315 312 313 314 314 315 315 314 314 315 315 316 315 310 304 302 301 300 300 299 298 298 298 298 298 297 296 296 296 296 296 296 295 295 295 294 295 294 294 294 293 292 292 292 291
319 323 324 325 326 327 331 328 322 323 322 315 313 317 321 322 322 321 320 319 319 316 313 314 313 314 315 315 315 315 315 315 314 313 312 312 311 310 309 309 309 309 310 311 310 311 312 313 313 314 314 313 313 312 313 313 313 314 315 314 313 314 315 315 312 306 302 301 300 300 300 299 299 299 298 298 297 297 297 296 296 296 296 296 295 295 295 295 295 294 294 293 293 292 292 291 291
318 321 322 324 327 330 333 330 326 326 325 319 314 319 326 328 328 322 314 312 314 315 316 316 315 315 314 313 313 314 314 315 314 314 313 312 311 311 310 309 309 309 310 311 311 311 312 312 313 313 312 312 312 313 313 313 313 313 313 313 313 313 313 312 308 303 301 301 300 300 299 299 298 298 298 298 297 297 297 296 296 296 296 295 295 295 295 295 294 294 293 293 292 292 291 291 291
318 319 321 323 325 325 324 324 323 323 324 323 318 321 326 325 324 319 312 313 314 312 312 314 315 315 313 313 313 313 313 314 314 314 314 313 311 310 310 309 309 309 309 310 311 310 311 311 312 312 311 312 313 313 312 313 313 313 312 313 313 312 311 309 305 302 300 300 299 299 299 298 298 298 298 298 297 297 297 296 296 296 295 295 295 295 295 294 294 293 293 292 291 291 291 291 290
318 317 320 320 318 320 322 321 317 316 320 323 321 323 325 323 322 320 317 319 318 314 312 312 313 314 312 313 315 313 313 314 314 314 313 313 312 310 310 309 309 309 309 310 311 310 310 310 311 311 311 312 313 313 313 312 312 313 312 313 312 310 308 305 303 301 299 299 298 298 298 297 297 297 297 297 297 297 297 296 296 296 295 295 295 295 294 294 293 293 292 291 291 290 290 290 290
320 321 320 317 316 322 325 324 323 322 323 324 322 323 325 325 325 324 319 320 320 319 316 311 311 313 312 315 317 314 313 313 313 314 313 312 312 310 310 309 309 309 309 309 310 310 310 309 310 311 311 311 312 313 313 312 312 312 313 313 311 308 305 303 301 300 299 298 298 297 297 297 297 297 297 297 297 297 297 296 296 295 295 295 295 294 294 294 293 292 291 290 290 290 290 290 289
317 320 318 318 323 325 323 323 327 327 326 326 323 320 322 322 323 323 321 324 328 325 320 317 314 312 312 317 318 314 312 313 313 313 313 313 312 311 310 309 309 308 308 309 310 310 310 310 310 310 310 311 311 312 313 312 312 312 312 312 309 305 303 301 300 299 298 298 297 297 297 297 297 297 297 297 297 297 297 296 296 296 295 295 295 294 294 293 292 291 290 290 290 290 290 289 289
313 315 315 318 323 323 322 322 323 325 326 327 325 322 323 322 322 324 322 324 328 326 327 327 317 312 315 319 319 315 313 313 313 313 314 313 313 312 310 309 309 309 308 309 309 310 310 310 309 309 310 311 311 311 312 312 312 312 312 310 306 303 302 300 299 298 297 297 297 297 297 297 297 297 296 296 296 296 296 296 296 296 295 295 295 294 294 293 292 291 290 290 290 290 289 289 289
315 318 317 317 318 319 322 321 320 325 326 327 327 324 325 325 322 323 323 324 325 325 329 326 315 314 319 320 318 316 314 313 313 313 313 313 313 312 310 309 308 308 308 308 309 309 310 310 309 309 310 311 311 311 312 312 312 312 311 308 304 302 301 299 298 297 297 297 296 296 296 296 296 296 296 296 296 296 296 296 296 296 295 295 294 294 293 292 291 290 290 290 289 289 289 289 289
317 318 318 318 317 319 321 320 319 321 322 327 328 323 324 329 323 320 324 329 325 320 320 318 315 316 320 320 318 317 315 314 313 312 312 312 312 312 311 309 308 308 308 308 308 309 310 310 310 309 309 310 310 310 311 312 312 311 309 307 303 301 300 298 297 297 296 296 296 296 296 296 296 296 296 296 296 296 296 296 296 295 295 295 294 293 293 292 291 290 289 289 289 289 289 289 289
Wind_Speed
4 3 1 2 2 2 0 1 3 4 4 3 1 1 1 2 2 2 1 1 1 3 5 7 8 9 9 10 11 11 7 2 4 3 3 7 10 9 7 8 8 10 12 11 10 10 10 10 10 10 9 9 8 8 8 8 9 9 10 10 10 9 9 10 11 11 11 12 12 12 12 12 12 11 11 10 9 9 10 11 13 15 16 17 18 19 18 17 14 12 12 11 11 9 8 7 6
4 3 2 4 2 0 2 2 2 3 5 2 1 2 2 2 1 5 4 2 4 9 17 19 16 15 14 14 13 11 9 5 3 5 7 10 11 8 7 9 10 10 12 12 11 10 11 10 10 9 8 9 8 8 8 8 9 9 9 10 10 10 9 9 10 10 10 10 10 10 11 11 12 12 12 12 11 9 9 10 12 14 15 17 18 19 19 18 15 13 13 13 12 11 9 8 7
3 3 4 5 2 2 3 4 3 2 5 2 3 3 1 1 4 7 5 7 13 16 17 14 11 9 6 6 6 5 4 4 6 7 8 10 9 8 8 11 12 11 12 12 11 10 10 11 10 9 8 8 8 7 8 8 8 9 9 9 10 10 9 9 8 8 8 8 8 9 9 10 12 13 13 12 12 10 8 10 11 12 14 16 18 19 20 19 17 15 14 15 14 12 10 9 8
4 5 4 5 2 2 3 4 2 4 3 3 2 4 2 4 7 7 5 10 16 13 7 6 6 5 5 6 5 5 5 4 6 7 8 9 9 9 10 12 13 12 12 12 11 10 9 9 9 10 9 8 7 7 7 7 8 8 8 8 8 9 9 9 8 7 6 6 7 8 9 10 11 12 12 12 11 10 9 10 11 12 14 16 18 19 20 19 18 16 16 16 16 14 12 11 9
6 5 4 4 2 1 4 3 3 4 3 4 3 4 5 6 7 5 4 8 13 9 4 5 4 4 8 7 4 4 5 5 6 6 8 8 8 10 12 12 14 13 12 12 11 10 9 9 8 9 9 8 7 7 6 6 6 7 7 7 8 8 8 8 8 6 5 5 6 7 8 9 10 11 11 11 11 10 10 11 12 14 15 16 18 19 20 20 19 17 17 17 17 16 15 13 10
7 6 4 4 3 3 3 3 3 2 4 5 4 5 5 8 8 6 6 6 10 10 7 6 6 7 7 6 5 5 6 5 5 7 9 9 8 11 12 12 14 13 12 13 12 10 9 8 8 8 8 7 7 6 6 6 5 6 7 6 7 7 8 8 8 7 5 4 5 6 7 8 9 10 10 10 10 10 11 12 14 16 16 16 18 19 19 19 19 18 17 17 17 17 16 15 13
7 5 4 6 5 4 3 4 4 2 3 5 4 5 6 9 9 7 6 6 6 7 7 8 11 9 4 4 4 4 7 6 6 8 10 10 8 11 13 13 14 14 14 14 13 10 9 8 8 7 7 7 7 6 6 6 5 5 6 6 6 6 7 7 7 6 5 5 5 6 6 7 8 8 8 9 9 9 11 12 15 16 16 17 17 18 19 19 19 18 17 17 17 16 16 16 15
6 4 3 5 4 4 4 3 3 2 2 4 4 5 9 11 11 7 3 3 3 4 9 13 10 5 2 3 1 5 7 6 8 10 11 11 9 11 13 14 14 14 15 16 14 12 10 9 9 8 8 7 7 7 6 6 6 5 5 5 6 6 6 6 6 6 5 5 5 5 5 6 6 7 7 7 8 8 10 11 13 15 16 17 17 18 18 18 18 17 16 16 16 16 16 16 16
5 4 3 5 3 3 3 2 1 2 2 3 3 5 9 11 11 6 4 3 4 6 12 13 4 2 5 4 3 7 7 7 10 11 11 11 10 10 11 12 13 14 16 17 15 14 12 11 10 10 10 9 8 7 6 6 6 5 5 5 6 6 6 6 6 5 5 5 4 4 4 5 5 6 7 7 7 7 9 10 12 14 16 17 17 17 18 17 17 16 16 15 15 15 15 16 16
4 3 4 4 3 4 3 1 0 2 3 4 4 6 8 12 9 5 6 5 5 6 8 8 2 5 10 6 6 9 9 10 12 12 11 11 10 9 10 12 13 14 16 17 15 14 14 12 11 11 11 10 9 8 7 7 6 6 6 5 6 5 5 6 6 5 5 5 4 3 3 4 4 5 5 6 6 7 8 10 11 13 16 16 17 17 17 17 16 16 16 15 15 14 15 15 16
3 3 5 5 4 2 2 3 2 3 4 4 3 6 8 12 8 6 6 6 5 5 7 6 3 11 11 6 7 9 11 13 13 12 12 12 11 10 10 11 13 13 15 16 16 15 14 13 12 13 12 11 10 9 9 8 7 7 6 6 6 5 5 5 6 5 5 5 4 3 2 2 3 3 4 4 5 6 7 9 11 13 15 15 16 17 17 17 16 16 16 15 15 14 15 15 15
1 2 4 4 3 3 4 4 4 4 4 3 2 5 7 11 9 7 7 8 6 6 7 4 6 13 7 2 8 11 13 15 14 13 12 12 12 11 11 11 11 13 13 14 14 15 14 14 14 14 14 13 11 11 10 9 9 8 7 7 6 6 5 5 5 5 5 5 4 3 2 1 1 2 3 3 4 5 7 8 9 11 13 14 15 15 16 16 16 16 16 16 16 15 15 14 14
3 2 5 3 3 3 4 4 3 1 3 3 4 4 7 11 10 11 11 9 6 6 3 5 11 11 4 2 8 14 15 16 15 13 13 12 13 12 12 12 12 12 13 13 13 14 15 15 15 15 14 14 13 11 11 10 9 9 8 9 8 6 6 5 5 5 5 4 3 2 2 2 1 1 1 2 2 3 5 6 7 9 11 13 14 15 16 17 17 17 17 17 17 16 15 15 14
4 4 5 3 2 3 5 3 2 3 3 5 4 5 7 7 9 15 15 8 3 5 4 9 14 7 3 4 8 17 18 16 17 14 15 13 14 14 13 14 13 14 14 15 16 16 15 15 16 14 12 14 14 12 12 11 10 9 9 10 9 7 6 5 5 5 5 4 3 2 2 2 2 2 2 2 2 2 3 4 6 8 10 11 12 14 16 17 17 18 18 18 18 17 16 15 14
5 5 5 4 3 2 3 2 2 5 5 4 4 6 6 6 9 14 14 7 3 7 8 12 14 3 4 7 8 19 19 17 18 16 16 15 15 15 16 16 15 16 15 16 15 15 14 12 14 14 15 16 15 14 13 13 12 10 10 11 9 7 7 7 6 5 5 4 3 3 3 3 4 3 3 3 2 2 2 4 5 7 9 9 11 13 14 15 16 16 17 18 18 17 17 16 15
5 4 5 4 2 2 3 2 3 4 5 5 7 8 7 6 10 10 7 6 8 11 9 10 14 6 6 11 9 17 20 18 18 17 18 17 17 17 17 18 17 17 17 16 15 15 13 11 14 16 18 19 16 17 17 15 14 12 12 12 10 8 8 8 7 6 5 5 4 4 4 4 4 4 3 2 2 2 2 4 5 6 8 8 9 11 13 13 14 15 16 17 17 17 17 16 16
4 4 5 3 3 4 4 4 4 4 5 5 9 10 7 4 7 7 4 7 11 13 9 9 15 11 8 12 11 17 21 18 18 18 19 18 19 18 18 19 19 18 17 17 16 15 13 12 16 17 18 18 17 19 20 18 16 14 13 12 10 9 10 9 8 6 5 6 6 6 6 5 5 5 4 3 2 2 2 4 4 5 7 7 7 9 11 13 14 14 15 16 16 16 16 15 15
3 3 4 3 4 4 5 7 7 4 4 8 11 12 9 6 7 8 5 7 10 10 10 10 14 13 11 13 12 18 20 17 18 18 19 19 19 20 20 20 19 18 17 17 16 16 15 14 16 16 18 20 19 21 20 18 18 16 15 13 12 11 11 10 9 8 7 8 8 7 7 7 6 6 5 4 3 3 3 3 3 4 6 6 6 8 10 11 12 12 13 14 14 14 13 13 12
3 3 4 3 5 4 4 7 9 4 3 10 12 11 11 9 11 12 5 4 7 6 7 9 11 12 13 14 14 19 20 18 18 18 19 19 19 19 19 19 19 18 17 17 16 16 16 16 16 16 18 21 20 20 18 18 18 18 17 14 14 14 13 12 11 10 10 10 10 9 9 8 7 7 6 5 4 4 4 2 2 3 4 6 6 6 8 9 10 10 10 11 12 12 11 11 10
2 4 3 4 6 3 3 5 10 7 5 12 12 9 10 9 12 12 6 5 5 5 8 9 12 14 15 15 16 20 21 20 19 19 20 20 19 19 18 19 18 18 18 17 17 17 17 17 17 16 17 19 19 19 19 19 19 18 18 17 16 15 15 14 12 11 12 12 10 9 9 9 8 7 7 6 5 5 4 2 2 3 4 4 5 5 6 7 8 9 8 8 10 10 9 9 9
2 4 3 5 6 2 2 3 7 8 8 13 11 7 7 9 12 11 8 6 4 11 15 14 13 14 15 16 17 20 21 21 21 20 21 21 20 19 18 18 18 18 18 18 18 18 18 18 17 17 17 17 18 19 20 21 20 19 19 19 18 17 16 15 13 13 13 12 11 10 9 9 8 7 8 8 6 6 5 3 4 3 4 4 3 4 4 5 6 7 6 6 7 9 8 8 7
3 1 1 5 6 2 2 4 5 9 11 12 10 7 7 9 9 11 12 7 6 11 15 16 14 12 13 16 17 20 22 21 21 21 21 20 19 18 17 17 17 18 17 17 18 18 18 19 19 19 18 18 18 19 20 21 21 20 21 21 20 19 18 17 16 16 14 14 14 11 9 8 7 7 8 11 11 9 6 6 4 2 3 3 3 3 3 3 4 4 5 4 5 6 7 7 6
2 1 1 4 5 2 5 6 7 10 11 10 10 7 8 9 6 10 15 13 10 9 10 13 15 13 13 16 18 20 21 21 21 20 20 19 17 16 15 14 15 16 17 17 18 19 19 19 20 19 20 20 19 20 20 20 20 20 22 22 21 21 19 19 18 17 15 16 16 12 10 8 8 8 8 12 12 9 7 9 5 1 2 3 1 2 3 1 3 2 1 1 2 3 5 6 6
4 1 0 3 4 3 7 7 7 9 9 9 9 7 8 10 6 6 15 20 17 13 11 11 15 16 15 17 18 18 19 19 19 19 18 18 17 16 15 14 14 14 15 17 18 19 19 19 20 20 20 21 21 22 21 20 20 20 21 20 20 22 21 21 20 18 17 18 16 13 11 9 10 10 10 11 12 9 9 11 5 2 2 2 2 1 4 2 3 3 3 3 3 4 3 3 5
4 2 2 3 2 4 7 6 7 8 7 8 7 7 7 9 7 5 14 19 18 17 15 12 14 16 16 18 18 18 18 18 18 18 18 18 18 17 16 15 14 14 14 14 15 16 16 18 19 20 21 22 23 23 22 21 20 21 20 18 18 19 19 20 20 19 20 19 16 14 12 10 11 12 11 11 12 11 11 11 7 4 3 4 3 3 5 4 4 5 4 4 5 4 2 2 3
1 4 4 3 2 4 7 7 8 8 8 7 6 5 5 7 5 9 16 18 17 17 15 14 15 17 18 19 19 18 18 18 18 19 19 19 19 18 17 16 14 14 14 14 14 14 15 16 17 20 21 22 24 25 25 22 21 22 19 18 19 17 17 18 17 17 18 18 16 13 12 11 11 11 11 11 12 11 11 12 10 7 5 7 5 5 7 6 6 5 5 5 5 4 3 2 3
3 4 2 1 1 3 6 8 9 8 7 8 8 5 5 5 3 7 14 14 16 17 15 16 16 17 19 19 20 19 18 18 19 19 20 20 20 19 18 16 15 15 15 14 14 14 14 15 17 19 21 23 25 25 26 24 23 22 19 20 22 19 16 17 16 14 14 15 14 13 13 12 11 11 11 11 11 11 11 12 10 8 8 8 7 7 8 7 6 5 5 6 6 4 3 1 3
3 2 1 3 3 5 7 9 10 8 5 8 9 4 3 2 3 10 12 11 15 17 16 17 18 18 19 20 21 20 19 19 20 21 22 21 20 19 18 17 16 16 15 15 15 15 14 15 16 18 21 23 25 26 26 25 24 23 22 22 22 21 20 20 20 18 14 12 12 13 15 13 11 12 12 12 11 11 12 11 10 9 8 9 9 8 8 7 6 6 7 8 7 4 1 1 3
3 4 2 5 7 5 6 6 8 8 3 5 6 2 4 4 9 13 11 11 14 16 18 19 20 20 20 21 22 22 21 20 22 23 23 22 21 20 19 18 18 17 16 15 15 15 14 15 16 18 21 22 25 28 25 23 22 22 23 22 21 21 19 18 18 19 17 15 14 14 14 12 13 13 13 12 12 12 12 11 11 9 8 9 10 8 8 8 8 8 7 7 5 3 3 3 3
1 4 2 4 7 5 3 0 6 9 3 5 7 3 6 8 13 13 9 12 16 17 20 21 21 22 22 23 24 24 23 24 25 24 24 24 24 23 21 20 19 17 16 16 16 15 15 15 16 18 20 23 25 26 23 23 22 21 21 21 21 20 18 18 18 19 17 17 17 15 12 11 12 13 12 13 14 13 12 12 11 10 9 9 10 8 9 9 9 8 7 5 3 3 5 4 4
1 1 2 2 2 4 5 1 8 8 4 7 8 2 7 8 11 10 11 14 16 19 21 22 23 24 25 25 26 26 26 26 25 24 25 25 26 24 22 21 20 18 17 16 16 15 16 16 17 18 20 22 24 23 24 25 22 20 18 17 19 19 19 19 19 17 15 14 15 15 14 13 14 13 13 14 14 13 12 12 12 11 10 9 9 9 10 9 8 7 6 5 3 4 4 2 3
3 1 3 3 1 5 8 1 9 6 3 8 7 2 7 9 9 7 13 16 17 20 21 23 25 25 26 27 27 28 27 27 26 25 26 27 27 26 23 22 20 19 18 16 16 16 16 17 18 18 20 22 22 22 24 23 21 22 20 17 19 20 19 18 19 18 14 14 16 17 17 16 15 15 15 14 13 12 13 11 10 11 10 9 9 9 9 8 7 6 6 5 4 3 3 3 3
4 1 3 2 2 3 6 2 6 3 3 4 3 2 4 5 3 2 10 17 19 20 22 24 26 26 28 28 29 29 28 28 28 27 28 28 28 27 24 23 21 19 18 16 16 16 16 16 18 19 20 22 23 24 23 22 23 23 21 22 24 23 20 20 22 19 15 16 17 17 17 16 16 16 15 14 12 10 9 7 7 9 10 9 9 8 8 7 7 6 5 4 3 3 3 4 4
4 1 2 4 3 2 3 4 4 2 3 3 3 3 7 7 4 3 8 15 19 22 24 26 26 28 28 29 30 30 30 30 30 28 28 29 29 28 26 23 22 20 18 17 16 16 16 16 19 20 21 23 25 25 24 23 22 20 21 25 25 22 22 22 21 17 15 18 17 17 16 15 15 14 13 11 9 8 7 7 8 9 10 9 8 7 7 7 6 5 3 4 4 3 3 4 4
3 3 2 3 3 3 4 4 3 4 2 3 4 4 11 12 12 14 12 14 19 23 26 26 26 28 29 30 32 32 32 32 30 29 28 29 29 29 27 24 23 21 19 18 16 16 17 18 20 20 21 23 24 24 25 25 23 21 23 24 22 20 21 21 18 16 17 16 15 15 14 13 13 12 10 9 9 10 9 9 10 10 10 8 7 7 7 6 5 4 4 5 7 7 6 5 5
6 6 4 4 4 4 5 5 5 5 3 4 7 7 11 12 13 15 14 16 21 24 25 25 27 29 30 32 34 34 34 33 30 30 30 29 30 30 28 25 24 22 19 18 17 16 18 20 21 21 21 23 23 22 24 25 24 25 26 25 23 22 21 19 17 17 17 15 14 14 13 12 12 11 10 10 10 10 10 10 10 10 10 8 7 6 6 5 5 6 7 7 8 8 8 7 6
5 5 4 4 4 5 5 5 6 2 4 6 8 8 11 12 11 14 12 12 18 23 24 27 30 32 33 35 36 37 36 34 31 31 31 30 30 30 29 26 24 23 20 19 18 18 19 21 22 23 22 23 24 23 22 23 25 26 25 23 22 21 21 19 18 18 16 15 14 14 13 13 12 11 11 10 10 10 10 10 10 10 9 8 7 6 6 8 8 8 8 8 7 7 8 8 7
4 5 3 3 4 6 7 4 5 0 4 6 5 6 11 12 12 16 12 8 15 25 26 30 34 35 36 37 38 38 36 35 34 34 33 32 32 31 30 28 27 24 22 21 20 19 20 21 22 24 24 25 25 25 24 25 26 25 24 23 22 20 19 19 18 17 16 15 15 14 14 13 13 12 12 11 11 10 10 10 10 10 9 8 8 8 9 9 10 8 6 6 7 6 6 7 8
2 3 2 3 3 4 6 4 4 0 4 4 3 4 10 13 11 14 16 14 21 30 31 34 36 34 37 39 40 39 37 37 38 37 36 35 34 33 32 31 28 26 22 22 21 20 21 22 23 24 25 27 27 26 27 27 25 24 23 23 21 19 17 17 16 16 16 16 16 15 15 14 14 14 13 12 11 11 10 10 11 12 11 10 9 10 10 8 8 7 5 3 4 4 5 6 6
2 3 3 4 3 2 4 4 4 0 2 2 3 4 9 12 8 11 20 23 26 32 32 35 36 35 38 39 39 39 39 40 40 39 38 37 37 36 35 33 30 27 25 24 23 23 23 24 24 24 25 28 29 28 28 26 24 24 23 22 20 18 17 17 18 17 18 18 17 18 17 16 15 14 13 12 12 12 12 13 14 14 14 12 10 9 9 8 7 7 5 3 2 2 4 5 6
4 5 6 5 4 6 6 4 4 3 3 2 2 5 7 9 7 8 12 13 19 28 27 31 38 39 39 38 37 38 39 40 40 40 39 38 39 39 37 35 31 29 28 27 25 25 25 26 25 25 26 27 28 28 26 26 26 26 25 23 21 20 19 21 21 21 21 20 20 19 18 17 15 14 14 14 15 15 15 15 15 14 14 13 11 9 8 8 7 6 5 4 4 3 3 5 7
5 5 10 10 9 8 6 2 4 4 5 3 2 4 6 5 5 7 6 4 10 17 17 25 37 37 36 37 39 40 38 39 39 39 39 39 40 40 38 36 34 32 30 28 27 25 27 28 27 26 28 27 25 25 26 27 28 27 25 24 22 22 24 24 24 23 22 22 21 19 18 17 16 17 18 18 18 17 17 15 14 13 12 11 10 8 7 6 6 5 5 5 5 4 3 3 5
3 5 9 11 8 6 4 2 2 0 4 3 2 3 6 7 6 7 5 5 10 11 10 20 32 31 31 35 37 38 37 38 39 38 39 39 40 41 40 39 36 34 31 29 27 25 26 28 27 26 28 28 25 25 27 29 27 24 23 23 22 23 25 25 25 24 23 22 21 19 19 20 21 21 21 20 19 17 16 15 14 12 10 9 9 7 6 4 4 3 4 3 2 2 3 1 2
3 5 5 8 7 7 7 6 4 3 3 4 1 3 4 7 7 5 3 6 10 12 12 17 26 29 30 33 35 35 36 37 38 39 39 40 41 41 41 40 37 34 32 30 29 26 25 26 26 26 27 27 26 26 27 28 26 25 24 23 23 23 23 25 26 25 24 23 22 21 23 24 24 22 21 20 19 17 15 14 12 10 9 8 7 6 4 3 3 2 2 1 0 1 1 1 1
5 3 6 6 6 6 4 5 3 1 3 5 5 2 3 7 6 5 3 4 9 13 13 14 22 28 29 32 34 34 34 34 35 37 38 39 40 41 40 39 36 34 33 31 29 27 25 26 26 27 28 28 27 27 28 29 29 28 26 25 25 24 24 26 26 26 25 24 24 26 27 26 25 23 21 20 19 17 14 12 11 10 9 8 6 5 4 3 2 1 1 0 1 2 2 3 4
4 6 7 5 5 5 4 5 3 2 2 8 8 4 3 6 4 3 2 2 8 12 11 12 18 23 23 23 25 26 28 30 31 34 35 36 38 38 39 38 35 34 33 32 29 27 26 28 28 28 30 30 28 29 30 30 29 27 25 27 26 25 27 29 28 28 27 27 28 29 29 27 25 24 22 20 18 16 14 13 12 10 9 7 6 4 3 2 2 1 1 2 3 3 4 4 4
8 7 6 6 6 5 3 3 3 2 3 9 9 8 6 6 3 5 4 4 7 8 8 10 14 18 16 14 15 17 19 23 26 30 32 34 35 36 37 37 36 34 34 32 30 29 28 29 30 30 30 31 29 30 30 29 27 26 27 28 26 26 29 31 30 30 31 32 33 31 29 27 26 24 22 20 18 16 15 14 12 10 9 7 5 4 3 2 1 2 2 3 4 4 4 4 4
7 4 5 4 4 4 4 4 3 1 6 6 4 5 7 7 6 5 6 6 7 8 8 9 11 15 14 9 12 14 15 17 21 26 30 33 34 36 38 38 37 36 35 33 32 31 30 31 31 30 32 33 31 30 30 29 28 28 29 27 26 27 29 31 32 33 34 36 35 32 30 29 27 25 23 21 19 17 15 14 12 10 8 7 5 4 2 2 2 2 2 3 3 3 3 3 4
4 4 6 4 3 3 3 3 0 3 7 4 1 3 4 8 9 8 9 10 11 11 13 13 14 19 19 12 11 12 13 15 18 22 27 31 34 36 38 39 39 38 37 36 34 33 33 34 33 32 34 35 33 31 31 31 30 30 30 28 26 27 29 30 31 33 36 36 34 32 30 28 27 25 23 21 19 17 15 13 12 10 8 6 5 3 2 1 1 2 2 2 2 3 3 2 3
5 5 6 5 2 0 3 4 2 4 6 3 1 2 3 5 6 11 14 15 18 18 20 22 23 26 25 19 15 15 16 17 18 20 24 29 32 35 38 40 41 40 39 37 36 35 36 36 36 35 36 36 34 33 32 32 31 31 31 29 28 28 29 30 32 35 36 35 33 30 28 26 25 24 22 21 19 17 16 13 11 9 8 6 4 3 2 1 2 3 3 3 3 3 3 2 3
5 4 5 5 5 5 4 4 4 5 4 4 2 2 4 3 3 8 11 14 19 24 27 30 32 33 29 25 23 22 22 22 22 22 24 27 30 33 37 39 41 41 40 39 38 38 38 39 38 37 36 35 34 34 34 34 33 32 32 31 29 29 29 30 33 36 36 33 31 29 27 25 24 23 22 20 18 17 15 14 12 10 8 6 5 3 3 3 4 4 4 4 4 4 3 3 3
3 2 4 4 6 5 2 3 5 2 3 4 3 3 5 4 5 8 8 10 14 19 24 27 32 32 26 26 27 25 23 23 24 25 25 27 29 32 36 39 41 42 41 41 40 39 40 40 40 38 37 36 35 36 35 35 34 34 33 32 31 30 30 33 36 38 35 32 31 29 27 25 24 23 21 20 19 17 15 13 12 10 8 7 5 5 5 5 5 5 5 5 4 4 3 3 3
2 3 4 3 4 6 1 3 1 3 3 5 3 5 5 3 7 8 6 9 11 11 15 20 26 25 21 25 28 25 23 21 22 24 25 27 29 32 35 38 41 42 42 42 41 40 40 40 40 40 38 37 37 37 37 36 36 36 35 33 32 32 33 36 38 38 35 33 31 28 27 26 25 23 22 20 19 18 16 14 13 11 9 8 7 6 6 6 6 6 6 5 5 4 4 3 4
5 4 6 2 2 2 2 2 3 3 4 5 2 5 4 1 5 5 0 7 11 11 12 15 21 22 22 28 31 27 22 20 20 22 24 27 29 31 34 37 40 41 42 42 41 40 40 40 40 41 40 40 40 39 38 38 37 37 36 34 34 34 35 38 38 37 35 33 32 30 29 27 26 24 22 21 20 18 17 15 14 12 10 9 9 8 8 8 8 7 7 6 6 5 5 4 5
4 4 5 4 2 1 2 2 2 1 3 5 3 4 4 5 6 3 3 8 10 11 11 10 15 19 23 30 31 27 22 20 21 22 23 26 28 30 33 35 38 40 41 41 40 40 40 41 41 41 41 40 40 40 39 39 38 37 36 35 35 36 37 39 39 37 35 34 33 32 30 28 26 25 24 22 21 19 18 16 15 13 12 11 10 10 10 10 10 9 8 7 7 7 6 6 6
3 2 3 2 2 4 3 3 3 3 3 3 3 3 4 6 7 7 10 11 9 9 9 8 12 19 24 27 27 25 23 21 21 22 22 24 26 29 31 33 36 38 39 41 41 41 41 41 41 42 42 41 41 41 40 39 38 38 37 37 37 38 39 40 39 38 37 35 34 32 31 29 27 26 25 23 21 19 18 17 15 14 13 12 12 11 12 11 11 10 9 8 8 8 7 7 7
4 4 5 3 1 2 1 1 2 4 3 2 3 6 6 5 5 9 11 10 10 10 9 7 12 19 21 22 23 24 22 20 20 21 21 23 24 27 30 32 34 36 38 40 41 42 42 42 42 42 42 43 43 43 41 40 39 39 39 38 39 40 41 41 40 39 37 36 35 33 31 29 28 27 25 24 22 20 18 17 16 15 14 13 13 13 12 12 11 10 10 10 10 9 8 8 8
7 7 9 9 7 4 3 3 1 2 2 4 2 7 9 5 4 7 8 7 8 9 8 8 14 20 19 19 21 22 20 19 18 19 20 21 23 26 28 31 33 35 37 40 41 42 43 44 44 42 42 44 44 44 43 41 40 40 39 39 40 41 42 42 41 40 39 37 36 34 32 30 29 28 26 24 22 21 20 18 17 16 16 15 14 14 13 12 11 11 11 10 10 10 10 10 10
Wind_Direction
224 217 209 145 124 133 135 96 88 19 65 90 5 71 217 214 215 166 147 313 34 17 72 114 109 106 104 102 112 95 73 127 165 144 164 169 159 163 155 149 150 153 165 163 152 150 148 144 137 129 123 117 110 100 94 89 82 78 81 84 84 87 97 106 108 103 99 93 89 84 76 72 70 65 60 57 60 59 49 44 39 34 31 29 30 33 37 41 47 55 62 65 65 67 74 87 107
198 185 166 155 114 193 213 82 87 353 55 80 298 170 227 330 139 172 195 210 141 108 96 101 96 92 94 97 95 79 55 45 117 129 135 149 157 166 162 162 159 158 165 164 157 154 154 150 140 134 131 126 122 113 106 101 96 90 89 85 82 84 98 111 113 109 103 95 86 76 68 63 62 60 60 58 61 62 52 44 35 27 25 28 32 36 39 43 49 58 67 69 67 68 76 90 109
167 167 160 169 123 71 151 63 82 88 76 123 255 241 269 1 190 197 195 145 130 117 103 99 86 74 88 95 66 65 78 68 105 122 135 149 156 161 164 168 161 156 163 165 160 158 159 151 146 146 143 140 131 119 115 113 109 103 100 94 88 87 99 114 118 116 109 98 85 73 66 59 56 57 63 63 63 63 55 48 39 30 28 32 36 39 41 45 50 60 68 70 69 70 76 88 103
140 147 147 170 151 79 82 47 114 118 111 172 222 259 249 182 197 208 163 135 139 130 112 97 71 55 81 99 76 80 117 119 118 131 151 155 155 160 162 166 161 153 160 168 164 159 160 155 156 157 151 149 140 127 120 117 116 112 107 100 94 90 97 111 118 120 116 104 87 74 64 56 56 61 67 69 70 68 59 53 46 40 39 38 38 40 42 45 50 58 64 68 69 71 74 82 93
134 130 147 195 187 91 87 70 108 102 167 179 155 250 245 194 199 205 146 142 168 170 144 110 88 93 86 83 90 102 127 140 141 151 170 169 155 154 159 162 158 154 160 169 168 163 161 161 167 164 157 154 150 140 130 122 123 120 114 107 100 98 102 110 117 122 122 107 84 73 63 56 60 66 71 75 76 70 63 58 51 45 43 41 39 39 42 45 48 54 59 63 66 68 70 74 77
135 117 109 151 118 101 107 98 116 108 206 170 147 236 230 201 201 174 117 117 165 173 157 131 130 125 87 66 77 115 135 139 157 167 179 181 156 146 157 159 156 157 161 169 171 168 164 168 174 173 167 164 159 150 144 137 135 131 123 116 111 109 108 111 116 119 117 102 80 69 60 59 64 68 70 73 72 65 61 56 49 45 43 42 40 39 41 44 47 51 55 59 63 66 68 69 68
141 130 93 109 77 54 102 118 151 164 195 173 175 202 200 203 193 160 121 103 133 157 153 142 137 119 89 81 77 129 141 137 151 163 174 181 164 146 155 156 156 158 162 170 173 172 171 175 179 181 176 174 172 164 157 151 149 146 133 127 123 115 108 109 114 117 107 93 77 64 60 62 67 69 69 70 68 62 57 52 48 45 42 41 40 39 40 43 47 50 54 58 62 65 68 68 66
143 152 98 101 42 29 92 100 169 177 155 212 233 187 185 189 178 163 134 123 131 149 141 141 136 104 136 158 137 161 146 149 158 166 174 178 171 154 157 159 156 158 164 171 175 179 181 183 185 185 183 186 187 176 167 166 165 158 149 142 136 127 115 110 109 108 96 88 75 62 64 67 69 74 76 71 67 62 55 51 46 42 39 39 38 38 39 43 48 51 55 58 61 63 65 67 66
130 141 99 91 67 42 56 40 155 216 264 248 243 200 184 176 172 158 113 104 122 141 148 152 142 82 173 180 177 173 162 169 167 171 175 176 179 165 161 161 159 160 166 171 177 183 186 191 191 188 188 193 196 188 180 180 178 167 161 155 147 138 129 124 112 105 97 89 77 66 68 70 72 76 78 70 62 59 52 49 44 39 38 38 37 37 38 43 48 52 56 60 62 63 63 64 65
105 102 111 85 79 61 43 28 228 242 260 257 235 210 182 174 171 144 126 117 130 145 164 180 198 142 162 169 168 173 169 173 172 173 176 175 182 181 170 163 162 164 169 173 178 185 188 194 195 194 195 195 199 197 191 189 186 176 169 166 160 151 138 131 120 116 111 102 91 77 79 76 76 78 78 69 58 53 46 44 41 37 37 35 34 36 38 43 50 53 56 59 61 62 62 62 61
82 59 103 79 78 108 172 190 247 256 269 309 265 208 185 184 166 126 127 124 141 141 150 176 170 144 148 166 175 177 171 173 176 176 177 173 178 190 188 173 169 172 176 180 182 185 188 196 200 199 200 200 201 199 198 196 189 186 180 176 174 164 146 136 134 136 129 120 113 100 100 79 81 83 68 60 53 47 40 37 35 34 34 34 35 37 41 47 54 57 57 58 60 60 61 61 60
137 30 80 87 123 167 188 167 206 259 301 322 211 201 189 188 165 141 138 129 145 135 141 174 170 148 130 180 182 178 173 174 180 182 184 175 175 188 196 191 184 184 186 189 190 189 191 198 203 202 202 202 204 204 203 201 192 192 189 185 187 178 161 152 150 151 143 133 127 120 121 95 93 82 48 47 43 41 40 38 35 34 37 39 41 43 49 56 60 63 63 63 62 62 63 64 64
154 142 87 96 152 145 146 145 201 278 317 250 193 170 162 179 173 160 145 127 141 136 151 189 167 154 132 201 189 182 175 177 182 186 192 184 180 189 199 203 202 197 192 194 194 199 202 200 201 202 206 203 201 208 207 206 201 199 203 196 190 185 179 174 164 159 155 143 136 132 126 128 141 109 48 50 53 49 46 47 45 45 48 47 47 52 58 63 65 66 66 66 65 65 65 65 67
134 144 97 106 111 107 135 133 210 156 233 244 195 163 154 178 179 160 143 123 161 147 150 169 162 156 165 185 197 188 178 178 185 189 197 197 190 192 202 208 213 209 202 201 198 207 214 208 205 198 205 210 201 207 211 210 209 206 211 199 189 191 194 194 180 171 167 155 144 142 143 164 176 168 141 126 106 87 69 59 59 59 58 55 56 62 67 70 69 68 66 66 66 65 66 65 66
122 122 86 106 93 83 154 167 165 151 215 222 167 170 148 155 166 160 149 133 175 154 146 164 168 177 199 195 202 190 180 178 187 194 199 204 203 200 204 209 216 217 216 218 214 220 224 216 215 199 197 210 203 206 212 212 211 207 212 204 198 204 203 203 194 185 178 163 161 174 178 187 192 186 168 152 135 117 94 73 72 71 66 64 68 71 74 76 73 68 67 67 67 67 66 66 65
112 107 76 91 120 154 173 170 125 130 231 206 161 158 126 140 158 163 172 155 157 155 158 176 185 214 225 209 204 187 182 179 187 197 202 208 212 210 211 211 217 222 224 228 225 228 229 205 211 212 203 207 205 209 210 208 210 207 215 213 210 218 210 205 193 185 183 172 182 195 196 198 205 200 188 181 154 129 103 87 85 78 71 70 75 78 77 80 78 72 71 71 69 68 68 68 67
99 87 67 81 152 182 184 174 165 167 226 212 173 165 134 149 166 168 191 171 161 162 176 188 195 220 228 210 200 188 188 184 188 199 205 209 214 216 219 218 220 223 224 230 228 228 232 208 210 220 211 205 204 214 214 207 209 206 211 210 206 215 211 203 194 189 192 192 199 206 208 203 207 212 208 209 173 143 121 101 94 82 77 74 73 78 79 84 84 79 77 76 74 72 71 70 69
84 100 89 124 170 188 180 179 191 167 185 194 182 176 156 161 174 165 154 156 159 164 186 190 197 215 209 199 197 193 194 192 195 204 209 213 217 219 221 223 225 226 225 228 229 226 228 221 219 221 213 209 209 219 222 213 212 208 206 207 206 212 212 206 201 202 202 205 208 211 216 211 207 215 217 208 182 157 146 126 99 92 88 83 77 70 74 87 87 83 82 81 81 79 77 73 67
77 102 95 176 199 199 192 193 197 180 183 183 178 181 172 173 174 166 166 167 157 157 185 186 194 203 196 198 201 198 199 201 206 213 216 219 222 224 224 226 227 228 228 227 228 227 226 225 225 225 219 220 223 226 227 221 218 214 211 210 210 211 210 208 208 210 209 209 211 214 219 218 211 216 225 218 199 172 160 158 116 104 95 91 91 71 64 81 84 80 83 82 83 82 80 75 65
70 92 89 224 214 207 233 208 200 213 202 170 171 186 182 181 177 176 186 173 180 204 195 191 200 204 199 202 202 200 204 208 214 220 222 224 225 227 228 228 230 229 230 229 228 228 229 228 228 229 225 227 231 229 226 226 224 220 217 212 210 213 212 215 218 215 214 214 214 216 221 220 212 222 230 219 201 181 168 181 169 125 103 97 92 79 64 74 81 76 74 75 78 78 73 70 66
49 99 143 210 182 161 224 187 195 212 192 172 169 175 186 186 183 189 175 147 238 235 214 214 220 216 210 205 203 203 208 213 217 222 225 226 226 228 228 228 230 229 230 231 231 231 231 233 231 231 230 229 230 227 225 228 227 223 223 217 213 215 218 220 218 217 220 224 227 222 220 221 213 224 226 208 195 186 179 183 178 143 122 116 98 85 62 61 75 79 72 64 65 66 58 54 56
65 50 216 170 149 131 167 145 159 175 169 167 162 161 187 185 191 203 184 170 231 232 224 228 234 233 224 215 208 205 211 217 221 225 227 228 227 227 227 226 226 228 229 231 232 234 232 234 233 231 230 229 227 226 226 228 228 224 225 225 220 218 219 218 215 220 226 228 236 228 218 225 219 222 220 204 191 181 183 185 184 161 143 148 137 107 75 41 39 76 85 66 54 54 49 43 43
95 353 340 153 172 192 159 145 146 160 163 168 170 179 185 177 206 221 206 217 230 236 240 233 233 235 230 221 214 211 214 219 223 227 230 230 229 227 226 224 223 224 225 229 231 233 233 233 234 231 229 229 226 225 226 224 222 222 227 228 224 222 221 222 220 221 225 228 236 232 221 226 224 223 213 203 192 182 188 187 191 224 170 181 179 132 134 43 341 7 73 56 39 37 42 35 34
108 122 41 153 204 209 165 155 159 171 182 185 185 192 192 190 212 231 222 233 240 248 253 238 233 231 225 219 216 216 217 219 222 226 229 231 232 229 228 225 224 224 223 225 228 230 234 234 235 234 231 229 225 226 227 222 214 217 228 229 225 224 219 223 226 219 219 229 238 234 227 224 223 222 208 206 208 206 198 187 197 281 220 233 278 182 180 213 302 293 303 308 332 2 21 15 17
79 142 192 147 164 193 176 175 182 193 203 200 200 201 204 205 214 248 237 238 242 247 250 241 231 226 223 219 217 219 218 219 220 222 226 228 230 229 229 230 228 229 230 228 229 230 232 233 235 234 231 228 227 227 226 223 216 214 223 228 228 228 224 226 230 225 221 227 232 229 232 229 222 223 215 213 217 217 209 201 217 245 236 266 279 204 206 231 260 270 293 300 317 333 328 324 341
95 141 155 147 146 186 190 202 199 204 213 204 207 218 227 218 231 264 249 241 243 243 242 238 230 225 222 218 218 219 220 222 222 224 226 228 231 232 232 233 233 233 237 239 238 236 232 231 231 231 230 228 226 227 226 223 218 217 218 221 228 232 230 232 234 235 230 227 226 222 227 229 222 223 222 218 216 219 215 211 220 221 232 260 245 209 225 242 249 266 285 288 305 322 343 350 332
131 120 118 158 208 224 215 220 214 210 218 211 205 223 246 221 208 255 247 236 236 235 232 230 226 223 221 218 217 219 223 226 227 228 228 229 231 233 235 236 237 239 243 246 246 243 238 232 229 228 228 227 226 227 228 222 217 218 213 211 223 224 211 213 221 227 231 234 233 224 222 220 217 218 219 220 220 222 220 218 222 219 230 241 227 224 241 245 246 258 267 279 303 330 3 355 322
97 74 308 303 321 273 233 224 223 211 222 223 207 222 259 192 196 242 245 234 230 228 225 224 221 222 220 219 219 221 225 226 229 231 232 234 234 235 239 239 241 244 246 249 250 249 243 235 228 226 227 226 223 223 226 225 219 215 212 211 219 220 213 219 227 223 219 226 225 222 224 216 214 224 226 229 230 227 224 225 227 225 229 226 224 237 247 248 253 262 266 282 305 322 329 284 308
59 49 325 312 355 322 239 226 219 198 215 219 186 256 274 209 224 238 240 228 223 221 222 223 221 221 221 222 224 227 230 230 232 236 236 235 234 235 238 240 243 246 247 250 251 252 248 240 232 226 226 223 221 222 223 226 223 215 215 214 212 217 219 220 225 226 218 209 211 224 235 225 219 232 236 234 234 227 224 232 237 234 231 222 222 232 239 245 253 261 265 273 287 274 260 252 248
41 48 37 324 359 334 263 234 189 180 203 181 153 261 269 242 239 232 228 221 213 214 219 223 223 223 224 225 229 232 234 238 239 241 238 233 232 233 235 239 243 245 246 248 251 251 248 242 235 228 226 221 219 220 215 215 220 218 220 216 214 220 215 208 216 230 228 214 220 232 238 230 222 230 236 234 231 222 223 236 233 224 224 221 217 220 230 239 242 248 252 249 234 234 258 247 227
346 12 25 8 4 279 295 29 158 160 208 177 148 248 264 267 261 235 227 222 212 216 221 223 225 226 228 230 233 238 240 243 245 243 238 234 233 234 235 238 240 243 245 247 248 248 246 241 235 228 223 219 216 215 213 215 214 211 220 223 219 219 213 215 221 231 235 222 221 223 222 223 220 225 229 227 225 219 223 228 218 216 222 221 217 219 226 232 234 235 232 220 203 221 251 247 245
26 346 306 346 165 264 310 262 167 156 199 173 149 247 267 276 279 245 220 216 213 222 226 226 229 229 231 235 237 241 243 243 244 241 238 234 233 234 235 236 238 240 243 245 245 245 243 237 232 225 217 214 211 211 213 214 209 204 210 209 203 204 203 209 218 225 232 225 218 216 217 219 218 221 223 221 222 224 225 222 213 214 218 217 216 221 226 225 220 213 203 192 188 213 238 232 233
0 65 247 279 179 273 321 282 201 183 133 174 192 244 274 282 298 217 202 209 213 221 230 231 232 234 235 238 240 242 243 242 243 241 237 233 232 233 233 234 235 238 240 241 241 242 241 233 225 220 213 209 205 207 212 211 211 213 213 209 208 212 213 218 227 229 225 220 217 214 215 217 217 219 219 221 221 219 218 215 210 209 212 215 215 221 224 213 197 186 181 177 190 227 232 221 207
313 4 236 242 201 219 298 308 251 188 126 203 220 231 255 261 279 258 210 210 213 221 233 235 235 237 237 239 241 243 244 244 245 243 239 234 232 233 233 234 234 236 237 236 235 236 236 228 222 217 209 207 206 206 209 207 210 215 212 211 216 220 222 228 233 225 216 217 213 211 215 216 216 215 213 212 201 196 202 207 212 213 212 211 210 213 206 193 183 177 186 185 173 180 187 184 183
198 194 204 248 235 216 250 286 237 161 127 226 200 240 258 265 273 264 244 220 217 227 237 239 239 239 240 241 242 244 245 246 248 246 242 236 233 234 234 234 235 235 235 232 231 230 229 222 218 216 205 206 210 207 206 208 211 213 209 211 220 223 224 231 229 213 210 214 209 209 212 210 209 207 201 195 191 201 211 213 215 212 202 196 194 195 187 185 185 174 176 168 151 147 155 160 164
162 175 159 185 220 248 237 253 248 180 155 230 215 230 253 263 271 265 251 224 223 237 244 243 244 243 241 242 242 244 245 247 249 245 242 237 233 235 235 233 234 234 233 233 230 227 225 218 213 212 207 206 208 207 209 211 211 210 209 214 218 217 219 226 220 208 209 211 207 204 202 199 199 197 193 192 194 201 207 205 201 195 185 179 182 190 188 177 162 155 150 145 146 149 153 154 154
122 128 141 185 203 264 256 255 285 198 164 244 230 230 253 257 264 269 259 224 223 238 245 245 245 244 243 242 243 243 245 247 247 245 242 237 233 234 235 233 232 232 230 231 229 224 222 218 213 210 207 206 206 210 214 211 207 206 207 212 214 215 220 223 215 208 211 209 200 194 192 192 191 189 187 184 183 186 192 190 187 185 180 178 186 190 179 158 147 150 149 143 150 158 154 151 152
98 121 177 245 209 252 256 244 301 188 171 263 251 238 260 257 256 267 259 210 226 237 239 245 246 245 245 244 245 245 245 246 245 243 240 236 232 231 233 232 231 232 230 229 228 223 220 216 214 211 206 204 207 213 214 209 209 212 218 223 223 224 223 218 212 209 210 203 191 187 187 184 182 181 180 179 180 184 193 192 186 183 174 172 178 172 162 155 150 151 147 143 148 156 153 148 153
106 122 163 262 241 270 279 276 317 83 179 267 288 257 264 260 254 260 250 228 241 246 243 248 250 247 247 247 247 247 244 243 242 241 239 236 232 230 231 231 230 230 227 228 227 222 218 214 213 211 205 203 204 208 209 210 213 217 223 224 220 218 215 209 210 209 204 195 187 183 181 179 178 180 182 187 189 192 197 190 177 167 156 155 164 164 158 156 151 140 132 130 135 149 152 148 159
198 167 170 246 250 264 276 289 319 327 196 267 297 294 274 267 260 256 252 244 249 255 252 255 255 251 252 252 252 250 246 244 242 240 238 235 231 229 229 230 228 226 223 223 224 219 216 214 211 208 204 204 206 208 210 214 218 214 213 214 213 215 212 207 206 202 196 190 186 182 180 179 181 186 192 192 190 185 178 170 162 154 149 152 163 167 159 152 146 136 138 142 133 169 176 165 172
242 203 194 221 226 218 232 285 324 333 342 351 330 305 281 267 257 253 261 255 255 259 256 257 257 254 255 255 254 252 249 248 245 241 240 235 232 230 229 228 226 224 224 223 223 218 213 213 212 207 205 207 209 210 213 216 213 206 205 208 213 214 209 204 202 196 189 186 186 183 181 185 187 190 186 176 172 166 160 159 156 153 154 158 163 166 161 153 149 145 146 149 145 158 176 172 172
275 228 204 213 216 221 238 317 3 0 327 329 29 297 280 291 273 258 283 307 267 262 253 252 256 255 254 252 252 251 249 248 246 245 243 239 234 230 228 227 225 225 226 224 223 218 212 215 215 208 206 209 209 211 214 212 206 205 209 215 217 211 204 199 197 194 189 186 188 188 188 187 182 177 168 161 160 159 157 159 158 160 164 162 159 162 164 156 153 152 143 141 145 136 131 158 166
270 247 206 209 202 201 216 178 100 256 261 280 90 209 268 306 289 254 263 273 265 266 258 255 258 257 253 254 255 252 249 247 244 243 241 238 234 230 228 228 227 226 225 223 222 219 214 215 213 207 207 208 206 208 209 205 203 206 216 226 226 214 203 196 191 193 193 190 192 192 187 177 168 165 161 158 160 161 162 162 162 165 165 160 158 161 166 159 156 157 141 137 146 119 104 137 165
237 253 177 176 177 188 197 168 184 235 264 305 18 164 262 290 274 261 262 267 272 273 267 264 262 259 256 257 258 256 253 249 245 241 238 236 233 231 231 231 229 227 224 221 220 219 215 213 208 203 203 203 202 204 206 207 210 215 222 228 223 212 207 199 192 193 194 194 194 188 177 168 163 163 163 163 164 165 167 165 164 164 164 165 164 165 170 167 166 166 152 148 77 44 60 6 335
246 221 126 143 156 163 157 138 186 294 25 296 283 140 250 265 263 300 323 265 271 270 263 264 263 262 261 261 261 261 258 253 248 244 241 238 236 233 232 232 228 224 222 221 219 217 213 208 205 203 202 204 206 208 208 211 217 223 226 222 213 208 205 201 197 196 195 193 189 179 171 167 165 165 167 168 167 167 168 168 166 166 168 172 169 170 179 176 176 174 148 62 14 2 351 348 346
199 135 94 78 78 81 84 106 132 48 41 256 250 160 229 263 238 268 320 232 253 263 263 263 267 270 270 267 267 265 261 254 248 245 243 242 239 233 229 228 226 223 221 220 217 215 211 206 205 205 205 208 211 209 210 213 217 220 218 211 211 209 203 200 200 198 194 189 183 176 172 170 169 170 171 170 170 170 170 171 171 170 173 175 173 175 181 177 163 115 42 16 4 355 348 347 341
134 110 67 48 34 41 41 59 84 47 264 250 237 178 197 267 245 221 231 211 226 246 262 270 273 274 272 273 277 274 267 258 249 243 239 237 235 229 225 224 223 222 220 218 216 214 210 206 206 206 208 210 209 207 210 214 215 213 210 210 216 214 205 202 201 197 191 185 181 177 174 174 173 174 174 173 173 174 174 174 173 174 176 176 176 176 174 159 109 55 24 9 358 350 349 343 334
120 89 81 71 348 10 16 0 51 227 248 253 251 162 178 237 255 237 244 248 238 233 244 260 272 272 271 286 295 286 275 262 250 242 236 232 229 224 221 222 221 220 220 218 216 214 209 207 207 207 206 207 208 209 211 214 214 211 210 213 217 215 209 207 204 198 189 183 181 180 177 177 177 176 176 176 177 177 177 177 175 176 178 176 177 178 162 126 72 28 359 350 347 339 333 332 332
109 98 111 104 325 354 345 303 118 236 251 262 337 122 184 237 251 252 255 258 249 237 236 244 257 266 271 285 294 290 282 268 253 242 236 233 229 224 221 220 220 219 220 219 216 213 209 208 209 207 206 207 212 215 212 212 214 212 211 213 216 215 213 213 208 199 189 184 184 184 182 181 180 179 179 179 179 177 177 178 178 177 179 180 178 172 152 112 351 315 313 312 307 301 297 312 327
163 147 143 145 146 178 270 267 268 264 268 288 266 184 245 266 259 241 236 238 242 247 254 258 263 268 272 276 275 275 277 272 259 247 240 236 232 227 223 220 220 220 219 218 216 213 210 209 210 210 212 214 216 215 212 211 213 213 212 215 216 215 215 214 209 199 190 187 187 188 188 186 184 183 181 180 181 180 179 179 180 181 182 184 180 174 182 233 266 269 271 268 265 269 276 293 307
188 155 140 160 161 171 217 220 231 257 285 301 277 201 201 208 257 245 238 246 248 252 259 264 268 271 274 276 272 267 266 265 260 252 245 241 235 230 225 222 221 220 220 218 217 214 211 211 212 212 214 214 212 210 211 211 211 212 213 215 217 216 215 212 205 198 193 190 190 191 191 188 186 185 182 182 183 183 184 182 182 186 186 184 183 187 216 239 248 251 245 246 251 254 262 277 289
223 113 121 193 185 167 207 207 182 192 300 296 235 225 215 208 272 271 260 267 258 253 257 261 265 269 272 273 270 266 263 261 257 251 246 241 236 231 227 224 221 220 220 220 218 216 214 212 213 214 213 211 210 210 211 212 212 213 214 216 217 214 211 207 201 198 195 194 193 193 192 188 187 186 185 185 186 185 186 186 186 188 186 185 189 200 222 234 236 236 233 237 240 242 253 270 280
164 139 178 209 170 146 175 266 63 84 266 269 199 238 288 312 283 275 252 255 263 264 261 258 260 266 272 272 270 268 263 260 257 253 248 242 237 232 228 225 222 221 220 220 221 220 218 216 215 214 213 211 210 211 213 214 214 214 215 216 215 210 206 204 200 198 197 195 194 193 192 190 188 189 189 188 189 189 187 188 189 188 186 188 195 208 221 226 226 225 225 227 230 236 249 260 271
128 183 200 150 79 105 117 246 343 44 253 273 218 234 276 286 274 307 279 232 252 259 255 257 263 266 269 270 271 270 265 261 258 253 247 242 238 234 230 226 224 223 223 223 224 223 221 220 217 215 214 212 211 212 214 216 216 215 216 216 212 207 204 202 201 200 199 197 195 193 193 193 191 191 192 191 192 192 190 190 189 189 189 193 202 212 218 220 219 219 218 220 225 234 245 253 261
126 177 180 128 133 215 120 171 233 201 248 285 289 254 241 202 227 271 217 216 233 249 252 256 262 261 262 267 271 272 267 261 255 250 245 242 239 236 232 228 225 224 224 225 225 225 223 221 219 217 217 214 212 213 215 217 217 217 217 215 209 204 202 203 203 202 201 200 198 196 195 195 194 194 195 195 195 194 193 192 190 191 194 199 206 213 216 217 215 215 216 221 228 234 241 246 252
53 98 145 122 152 178 166 166 169 172 226 281 309 301 247 218 209 200 212 219 215 236 251 246 249 254 260 267 273 275 272 266 259 253 249 245 242 240 235 231 228 225 225 225 225 226 224 222 221 218 217 215 214 214 216 217 218 217 216 213 207 203 202 204 204 204 204 202 200 199 198 197 198 198 197 196 196 195 195 195 194 195 199 203 208 212 215 215 213 213 216 223 232 235 237 241 246
153 163 173 185 138 109 156 205 132 136 168 220 290 291 263 237 204 191 206 216 206 218 231 236 249 254 260 271 278 279 281 278 267 256 251 248 244 242 238 232 229 226 226 226 225 226 226 224 224 220 216 215 215 215 216 218 218 217 214 210 206 203 203 205 206 206 206 204 202 202 201 200 200 200 199 197 196 196 197 197 197 199 201 204 209 213 215 215 215 217 219 225 232 235 239 243 247
178 189 191 186 174 147 173 234 203 124 174 184 200 275 268 240 192 199 206 205 207 217 214 228 253 257 264 277 282 286 292 290 279 264 255 250 246 244 240 234 229 226 226 226 226 226 226 225 225 223 218 216 216 216 217 217 218 216 213 209 206 204 204 206 207 207 207 206 205 203 202 202 202 201 201 198 198 199 199 199 199 202 204 205 209 213 215 218 220 221 223 230 234 237 243 247 249